W2DRT Weather Reports


time (UTC)temp
F
wind
direction
speed
knots
gust
knots
rain 1hr
in
rain 24hr
in
rain mn
in
humidity
%
barometer
mb
20260508012809 56 0.0 0.0 0.00 0.00 0.00 60 1009.9
20260508011804 56 0.0 0.0 0.00 0.00 0.00 58 1009.9
20260508010803 57 0.0 0.0 0.00 0.00 0.00 54 1010.2
20260508005803 58 0.0 0.0 0.00 0.00 0.00 51 1009.9
20260508004802 58 0.0 0.0 0.00 0.00 0.00 48 1009.6
20260508003801 59 0.0 0.0 0.00 0.00 0.00 44 1009.6
20260508002800 60 0.0 0.0 0.00 0.00 0.00 39 1009.6
20260508001800 60 0.0 0.0 0.00 0.00 0.00 37 1009.2
20260508000757 61 0.0 0.0 0.00 0.00 0.00 35 1008.9
20260507235757 61 0.0 0.0 0.00 0.00 0.00 33 1008.9
20260507234751 62 0.0 0.0 0.00 0.00 0.00 31 1008.9
20260507233749 62 0.0 0.0 0.00 0.00 0.00 30 1008.9
20260507232745 63 0.0 0.0 0.00 0.00 0.00 29 1008.9
20260507231744 63 0.0 0.0 0.00 0.00 0.00 29 1008.9
20260507230743 64 0.0 0.0 0.00 0.00 0.00 25 1008.5
20260507225740 65 0.0 0.0 0.00 0.00 0.00 24 1008.5
20260507224738 65 0.0 0.0 0.00 0.00 0.00 23 1008.5
20260507223737 66 0.0 0.0 0.00 0.00 0.00 24 1008.5
20260507222737 67 0.0 0.0 0.00 0.00 0.00 22 1008.5
20260507221736 67 0.0 0.0 0.00 0.00 0.00 23 1008.5
20260507220734 68 0.0 0.0 0.00 0.00 0.00 18 1008.5
20260507215734 71 0.0 0.0 0.00 0.00 0.00 17 1008.5
20260507214735 75 0.0 0.0 0.00 0.00 0.00 10 1008.5
20260507213733 74 0.0 0.0 0.00 0.00 0.00 10 1008.9
20260507212732 78 0.0 0.0 0.00 0.00 0.00 10 1008.9
20260507211731 79 0.0 0.0 0.00 0.00 0.00 14 1008.5
20260507210730 80 0.0 0.0 0.00 0.00 0.00 20 1008.5
20260507205730 80 0.0 0.0 0.00 0.00 0.00 23 1008.5
20260507204728 76 0.0 0.0 0.00 0.00 0.00 24 1008.2
20260507203724 73 0.0 0.0 0.00 0.00 0.00 27 1008.5
20260507202723 67 0.0 0.0 0.00 0.00 0.00 28 1008.5
20260507201720 66 0.0 0.0 0.00 0.00 0.00 30 1008.5
20260507200720 67 0.0 0.0 0.00 0.00 0.00 29 1008.9
20260507195718 67 0.0 0.0 0.00 0.00 0.00 33 1008.9
20260507194718 66 0.0 0.0 0.00 0.00 0.00 32 1008.9
20260507193717 66 0.0 0.0 0.00 0.00 0.00 32 1008.9
20260507192716 66 0.0 0.0 0.00 0.00 0.00 33 1008.9
20260507191714 66 0.0 0.0 0.00 0.00 0.00 35 1009.2
20260507190714 66 0.0 0.0 0.00 0.00 0.00 34 1009.2
20260507185711 65 0.0 0.0 0.00 0.00 0.00 33 1009.6
20260507184711 65 0.0 0.0 0.00 0.00 0.00 35 1009.6
20260507183711 65 0.0 0.0 0.00 0.00 0.00 35 1009.6
20260507182711 65 0.0 0.0 0.00 0.00 0.00 38 1009.9
20260507181709 65 0.0 0.0 0.00 0.00 0.00 40 1009.9
20260507180709 64 0.0 0.0 0.00 0.00 0.00 38 1010.2
20260507175707 63 0.0 0.0 0.00 0.00 0.00 39 1010.2
20260507174701 63 0.0 0.0 0.00 0.00 0.00 40 1010.2
20260507173656 63 0.0 0.0 0.00 0.00 0.00 41 1010.6
20260507172656 63 0.0 0.0 0.00 0.00 0.00 41 1010.6
20260507171652 62 0.0 0.0 0.00 0.00 0.00 40 1010.9
20260507170647 62 0.0 0.0 0.00 0.00 0.00 43 1010.6
20260507165645 62 0.0 0.0 0.00 0.00 0.00 46 1010.9
20260507164644 62 0.0 0.0 0.00 0.00 0.00 48 1010.9
20260507163644 61 0.0 0.0 0.00 0.00 0.00 50 1011.2
20260507162643 60 0.0 0.0 0.00 0.00 0.00 49 1011.6
20260507161642 60 0.0 0.0 0.00 0.00 0.00 50 1011.2
20260507160641 59 0.0 0.0 0.00 0.00 0.00 50 1011.2
20260507155639 59 0.0 0.0 0.00 0.00 0.00 51 1011.6
20260507145637 57 0.0 0.0 0.00 0.00 0.00 64 1012.6
20260507144637 57 0.0 0.0 0.00 0.00 0.00 64 1012.6
20260507143637 56 0.0 0.0 0.00 0.00 0.00 64 1012.6
20260507142636 55 0.0 0.0 0.00 0.00 0.00 67 1012.6
20260507141635 56 0.0 0.0 0.00 0.00 0.00 69 1012.6
20260507140634 55 0.0 0.0 0.00 0.00 0.00 68 1012.9
20260507135634 55 0.0 0.0 0.00 0.00 0.00 71 1012.9
20260507134633 54 0.0 0.0 0.00 0.00 0.00 73 1012.9
20260507133631 54 0.0 0.0 0.00 0.00 0.00 72 1012.9
20260507132632 54 0.0 0.0 0.00 0.00 0.00 74 1012.9
20260507131630 53 0.0 0.0 0.00 0.00 0.00 75 1012.6
20260507130630 53 0.0 0.0 0.00 0.00 0.00 78 1012.9
20260507125627 52 0.0 0.0 0.00 0.00 0.00 79 1012.9
20260507124626 52 0.0 0.0 0.00 0.00 0.00 80 1012.6
20260507123622 51 0.0 0.0 0.00 0.00 0.00 81 1012.6
20260507122619 51 0.0 0.0 0.00 0.00 0.00 81 1012.6
20260507121617 51 0.0 0.0 0.00 0.00 0.00 81 1012.6
20260507120615 51 0.0 0.0 0.00 0.00 0.00 84 1012.9
20260507115615 51 0.0 0.0 0.00 0.00 0.00 85 1012.9
20260507114613 51 0.0 0.0 0.00 0.00 0.00 87 1012.6
20260507113607 51 0.0 0.0 0.00 0.00 0.00 89 1012.6
20260507112602 51 0.0 0.0 0.00 0.00 0.00 90 1012.3
20260507111601 50 0.0 0.0 0.00 0.00 0.00 91 1012.3
20260507110600 50 0.0 0.0 0.00 0.00 0.00 92 1012.3
20260507105600 50 0.0 0.0 0.00 0.00 0.00 93 1011.9
20260507104559 50 0.0 0.0 0.00 0.00 0.00 93 1011.6
20260507103557 50 0.0 0.0 0.00 0.00 0.00 93 1011.9
20260507102556 50 0.0 0.0 0.00 0.00 0.00 93 1011.2
20260507101554 49 0.0 0.0 0.00 0.00 0.00 94 1011.2
20260507100554 49 0.0 0.0 0.00 0.00 0.00 94 1011.6
20260507095549 49 0.0 0.0 0.00 0.00 0.00 94 1011.6
20260507094548 49 0.0 0.0 0.00 0.00 0.00 94 1011.2
20260507093548 49 0.0 0.0 0.00 0.00 0.00 94 1011.2
20260507092543 49 0.0 0.0 0.00 0.00 0.00 94 1011.2
20260507091543 49 0.0 0.0 0.00 0.00 0.00 94 1011.2
20260507090540 49 0.0 0.0 0.00 0.00 0.00 93 1011.2
20260507085540 49 0.0 0.0 0.00 0.00 0.00 93 1011.2
20260507084539 49 0.0 0.0 0.00 0.00 0.00 93 1010.9
20260507083538 49 0.0 0.0 0.00 0.00 0.00 93 1010.9
20260507082537 49 0.0 0.0 0.00 0.00 0.00 92 1010.9
20260507081536 49 0.0 0.0 0.00 0.00 0.00 92 1010.9
20260507080535 49 0.0 0.0 0.00 0.00 0.00 93 1011.2
20260507075533 50 0.0 0.0 0.00 0.00 0.00 93 1010.9
20260507074532 50 0.0 0.0 0.00 0.00 0.00 93 1011.6
20260507073532 50 0.0 0.0 0.00 0.00 0.00 93 1011.2
20260507072533 50 0.0 0.0 0.00 0.00 0.00 93 1011.2
20260507071527 50 0.0 0.0 0.00 0.00 0.00 93 1011.2
20260507070527 50 0.0 0.0 0.00 0.00 0.00 93 1010.9
20260507065526 50 0.0 0.0 0.00 0.00 0.00 92 1011.2
20260507064521 50 0.0 0.0 0.00 0.00 0.00 92 1010.9
20260507063516 50 0.0 0.0 0.00 0.00 0.00 91 1011.2
20260507062516 50 0.0 0.0 0.00 0.00 0.00 90 1011.6
20260507061511 50 0.0 0.0 0.00 0.00 0.00 89 1010.6
20260507060506 51 0.0 0.0 0.00 0.00 0.00 86 1010.9
20260507055503 52 0.0 0.0 0.00 0.00 0.00 83 1010.9
20260507054501 54 0.0 0.0 0.00 0.00 0.00 78 1010.9
20260507053457 55 0.0 0.0 0.00 0.00 0.00 77 1010.9
20260507052452 55 0.0 0.0 0.00 0.00 0.00 77 1009.9
20260507051452 55 0.0 0.0 0.00 0.00 0.00 78 1010.2
20260507050450 56 0.0 0.0 0.00 0.00 0.00 78 1009.9
20260507045449 56 0.0 0.0 0.00 0.00 0.00 78 1009.9
20260507044449 56 0.0 0.0 0.00 0.00 0.00 78 1009.9
20260507043448 56 0.0 0.0 0.00 0.00 0.00 79 1010.2
20260507042446 56 0.0 0.0 0.00 0.00 0.00 80 1010.2
20260507041445 57 0.0 0.0 0.00 0.00 0.00 79 1010.2
20260507040443 57 0.0 0.0 0.00 0.00 0.00 79 1009.6
20260507035442 58 0.0 0.0 0.00 0.00 0.00 78 1009.9
20260507034441 59 0.0 0.0 0.00 0.00 0.00 78 1009.9
20260507033437 61 0.0 0.0 0.00 0.00 0.00 78 1009.9
20260507032437 63 0.0 0.0 0.00 0.00 0.00 83 1009.6
20260507031435 63 0.0 0.0 0.00 0.00 0.00 83 1009.2
20260507030435 64 0.0 0.0 0.00 0.00 0.00 82 1009.6
20260507025435 64 0.0 0.0 0.00 0.00 0.00 81 1009.6
20260507024430 64 0.0 0.0 0.00 0.00 0.00 78 1009.6
20260507023428 65 0.0 0.0 0.00 0.00 0.00 76 1009.2
20260507022423 65 0.0 0.0 0.00 0.00 0.00 75 1009.2
20260507021419 66 0.0 0.0 0.00 0.00 0.00 74 1009.2
20260507020414 66 0.0 0.0 0.00 0.00 0.00 73 1009.6
20260507015409 66 0.0 0.0 0.00 0.00 0.00 72 1009.6
20260507014408 66 0.0 0.0 0.00 0.00 0.00 72 1009.6